Regional Weather Roundup
Issued by NWS

Home | Current Version | Previous Version | Graphics & Text | Print | Product List | Glossary On
Versions: 1 2 3 4 5 6 7 8 9 10 11 12 13 14 15 16 17 18 19 20 21 22 23 24 25 26 27 28 29 30 31 32 33 34 35 36 37 38 39 40 41 42 43 44 45 46 47 48 49 50
000
ASUS43 KOAX 190602
RWRNE

WEATHER ROUNDUP FOR NEBRASKA
NATIONAL WEATHER SERVICE OMAHA NE
100 AM CDT SAT APR 19 2014

NOTES: SATELLITE DATA IS BEING USED TO AUGMENT CLOUD COVER ABOVE
       12000 FEET.
       "FAIR" INDICATES FEW OR NO CLOUDS BELOW 12,000 FEET WITH NO
       SIGNIFICANT WEATHER AND/OR OBSTRUCTIONS TO VISIBILITY.

  * THESE STATIONS DO NOT REPORT WEATHER SUCH AS RAIN...SNOW OR FOG.

NEZ001>004-019>022-054>056-190700-
NEBRASKA PANHANDLE

CITY           SKY/WX    TMP DP  RH WIND       PRES   REMARKS
SCOTTSBLUFF    CLOUDY    60  35  39 W7        29.84R
6HR MIN TEMP:  60; 6HR MAX TEMP:  81;

ALLIANCE       CLOUDY    59  35  40 S13       29.82F
6HR MIN TEMP:  58; 6HR MAX TEMP:  76;

CHADRON        CLOUDY    61  39  44 SW7       29.79R
6HR MIN TEMP:  61; 6HR MAX TEMP:  76;

KIMBALL        CLOUDY    57  33  40 S9        29.85F
SIDNEY         CLOUDY    61  39  44 S21       29.85R
6HR MIN TEMP:  61; 6HR MAX TEMP:  76;

$$

NEZ057>060-069>072-079>082-190700-
SOUTHWEST NEBRASKA

CITY           SKY/WX    TMP DP  RH WIND       PRES   REMARKS
NORTH PLATTE   CLOUDY    59  41  51 S21G30    29.88R
6HR MIN TEMP:  59; 6HR MAX TEMP:  70;

IMPERIAL       MOCLDY    56  42  59 S16G26    29.88F
6HR MIN TEMP:  56; 6HR MAX TEMP:  76;

LEXINGTON      MOCLDY    56  44  62 S24       29.94S
MCCOOK         MOCLDY    57  41  55 S20G30    29.91F
6HR MIN TEMP:  57; 6HR MAX TEMP:  70;

OGALLALA       CLOUDY    57  42  56 S22G30    29.84S
$$

NEZ005>010-023>029-035>040-094-190700-
NORTH CENTRAL NEBRASKA

CITY           SKY/WX    TMP DP  RH WIND       PRES   REMARKS
VALENTINE      CLOUDY    62  42  47 S25G37    29.77S
6HR MIN TEMP:  62; 6HR MAX TEMP:  72;

AINSWORTH      CLOUDY    60  43  53 S23G35    29.81S
BROKEN BOW     PTCLDY    56  43  61 S25G36    29.90F
6HR MIN TEMP:  56; 6HR MAX TEMP:  69;

O`NEILL        CLOUDY    61  40  46 S25G35    29.86F
ORD            PTCLDY    58  41  53 S22G37    29.90F
6HR MIN TEMP:  58; 6HR MAX TEMP:  70;

THEDFORD       MOCLDY    62  41  46 S23G35    29.84S
$$

NEZ041-046>049-061>064-073>077-083>087-190700-
SOUTH CENTRAL NEBRASKA

CITY           SKY/WX    TMP DP  RH WIND       PRES   REMARKS
GRAND ISLAND   FAIR      56  42  59 S18       29.99S
6HR MIN TEMP:  56; 6HR MAX TEMP:  68;

AURORA         FAIR      55  42  61 S15       30.01S
HASTINGS       FAIR      57  41  55 S13G22    30.00S
6HR MIN TEMP:  57; 6HR MAX TEMP:  68;

HEBRON         FAIR      56  41  56 S14       30.05F
HOLDREGE       FAIR      56  42  58 S16       29.97F
KEARNEY *      FAIR      57  41  54 S20G30    29.98S
YORK           FAIR      55  41  58 S17       30.02F
$$

NEZ011>018-030>034-042>045-190700-
NORTHEAST NEBRASKA

CITY           SKY/WX    TMP DP  RH WIND       PRES   REMARKS
NORFOLK        FAIR      56  40  55 S16       29.94F
6HR MIN TEMP:  56; 6HR MAX TEMP:  66;

ALBION         FAIR      56  41  56 S16       29.96S
BLAIR          FAIR      58  39  49 S21G26    30.06F
COLUMBUS *     FAIR      57  37  47 S22G28    30.00
FREMONT        FAIR      57  39  51 SE21G26   30.04F
TEKAMAH        FAIR      56  40  55 SE17      30.04F
6HR MIN TEMP:  53; 6HR MAX TEMP:  68;

$$

NEZ050>053-065>068-078-088>093-190700-
SOUTHEAST NEBRASKA

CITY           SKY/WX    TMP DP  RH WIND       PRES   REMARKS
LINCOLN        FAIR      57  39  51 S18       30.06F
6HR MIN TEMP:  57; 6HR MAX TEMP:  67;

OMAHA EPPLEY   FAIR      56  39  53 S14       30.09S
6HR MIN TEMP:  54; 6HR MAX TEMP:  68;

BEATRICE       FAIR      55  39  55 SE10      30.08F
FALLS CITY     FAIR      50  41  71 SE9       30.14S
6HR MIN TEMP:  50; 6HR MAX TEMP:  67;

NEBRASKA CITY  FAIR      55  40  58 S15       30.12S
PLATTSMOUTH    FAIR      56  38  51 S12       30.11R
$$

NEZ044-045-051>053-067-190700-
OMAHA AREA

CITY           SKY/WX    TMP DP  RH WIND       PRES   REMARKS
OMAHA EPPLEY   FAIR      56  39  53 S14       30.09S
6HR MIN TEMP:  54; 6HR MAX TEMP:  68;

BLAIR          FAIR      58  39  49 S21G26    30.06F
FREMONT        FAIR      57  39  51 SE21G26   30.04F
MILLARD        FAIR      57  40  51 SE13G20   30.08F
OFFUTT AFB     FAIR      56  41  58 SE14      30.10S
PLATTSMOUTH    FAIR      56  38  51 S12       30.11R
WAHOO          FAIR      53  38  57 S17       30.05F
$$



USA.gov is the U.S. government's official web portal to all federal, state and local government web resources and services.